Home > Weather > Trenton > Past weeks

Flag for USA Weather for the Past 2 Weeks in Trenton, New Jersey, USA

Now
48 °F

Low clouds.


Feels Like: 44 °F
Forecast: 47 / 56 °F
Wind: 9 mph from Northeast

Location: Mercer County Airport

Current Time: May 5, 2016 at 7:24:49 AM

Latest Report: May 5, 2016 at 6:53 AM


Visibility: 10 mi

Pressure: 29.66 "Hg

Humidity: 86%

Dew Point: 44 °F

Location of TrentonLocation

Historic Weather in Trenton — Graph

°F

Trenton Temperature Yesterday

Maximum temperature yesterday: 52 °F (at 10:53 AM)
Minimum temperature yesterday: 49 °F (at 3:53 AM)
Average temperature yesterday: 50 °F

High & Low Weather Summary for the Past Weeks

 TemperatureHumidityPressure
High83 °F (Apr 26, 2:53 PM)100% (May 2, 8:53 AM)30.25 "Hg (May 2, 8:53 AM)
Low42 °F (Apr 28, 4:01 AM)16% (Apr 20, 4:53 PM)29.56 "Hg (Apr 26, 2:53 PM)
Average55 °F68%29.95 "Hg
* Reported Apr 20 5:53 AM — May 5 5:53 AM, Trenton, Weather by CustomWeather, © 2016

Note: Actual official high and low records may vary slightly from our data, if they occured in-between our weather recording intervals... More about our weather records

Advertising

Trenton Weather History for the Previous 24 Hours

Scroll right to see more
 ConditionsComfort  
Time TempWeatherWind HumidityBarometerVisibility
5:53 AM
Thu, May 5
47 °FLow clouds.7 mph90%29.65 "Hg10 mi
4:53 AM47 °FOvercast.7 mph90%29.67 "Hg9 mi
3:53 AM47 °FMostly cloudy.6 mph90%29.68 "Hg7 mi
2:53 AM48 °FMostly cloudy.5 mph86%29.69 "Hg10 mi
1:53 AM48 °FOvercast.9 mph86%29.71 "Hg10 mi
12:53 AM49 °FOvercast.7 mph86%29.70 "Hg10 mi
11:53 PM
Wed, May 4
49 °FFog.6 mph90%29.71 "Hg4 mi
10:53 PM49 °FFog.6 mph93%29.71 "Hg3 mi
10:01 PM50 °FFog.7 mph89%29.74 "Hg4 mi
8:53 PM49 °FFog.5 mph93%29.71 "Hg5 mi
7:53 PM50 °FOvercast.9 mph86%29.70 "Hg10 mi
7:00 PM49 °FMostly cloudy.10 mph93%29.70 "Hg8 mi
5:53 PM50 °FFog.9 mph89%29.70 "Hg3 mi
4:53 PM51 °FFog.9 mph86%29.68 "Hg6 mi
3:53 PM51 °FMostly cloudy.10 mph86%29.67 "Hg10 mi
2:53 PM51 °FLow clouds.13 mph86%29.69 "Hg10 mi
1:53 PM50 °FMostly cloudy.12 mph89%29.71 "Hg7 mi
12:53 PM51 °FFog.9 mph86%29.73 "Hg2 mi
11:53 AM52 °FLow clouds.7 mph83%29.73 "Hg10 mi
10:53 AM52 °FLow clouds.12 mph83%29.73 "Hg10 mi
9:53 AM50 °FLow clouds.13 mph89%29.74 "Hg10 mi
8:53 AM50 °FLow clouds.13 mph89%29.74 "Hg10 mi
7:53 AM50 °FLow clouds.13 mph89%29.75 "Hg10 mi
Weather by CustomWeather, © 2016

See weather overviewHow to use our weather pages